Location: ??????
(56.0120°N, 39.1740°E)
Time: 06:55:00
(UTC+00:00)

Cosmos 1000 Rocket - Pass Details

Date: 14 April 2026
Orbit: 952 x 992 km, 82.9° (Epoch: 10 May)

Event Time Altitude Azimuth Distance (km) Brightness Sun altitude
Rises 18:19:55 0° 348° (NNW) 3,672 8.5 -14.2°
Reaches altitude 10° 18:22:27 10° 350° (N) 2,715 7.7 -14.4°
Maximum altitude 18:28:40 79° 77° (ENE) 982 4.4 -15.1°
Enters shadow 18:33:15 19° 163° (SSE) 2,107 5.7 -15.5°
